TimeEDT,TemperatureF,Dew PointF,Humidity,Sea Level PressureIn,VisibilityMPH,Wind Direction,Wind SpeedMPH,Gust SpeedMPH,PrecipitationIn,Events,Conditions,WindDirDegrees,DateUTC
12:29 AM,73.4,62.6,69,29.61,10.0,NNW,20.7,28.8,N/A,,Overcast,340,2012-10-27 04:29:00
12:39 AM,73.4,62.6,69,29.61,10.0,North,21.9,31.1,N/A,,Overcast,350,2012-10-27 04:39:00
12:53 AM,73.0,62.1,68,29.59,10.0,NNW,18.4,26.5,N/A,,Overcast,340,2012-10-27 04:53:00
1:37 AM,71.6,62.6,73,29.58,10.0,NNW,16.1,27.6,N/A,,Overcast,340,2012-10-27 05:37:00
1:53 AM,72.0,62.1,71,29.57,10.0,NNW,18.4,27.6,N/A,,Overcast,330,2012-10-27 05:53:00
2:38 AM,71.6,62.6,73,29.56,10.0,NNW,16.1,26.5,N/A,,Overcast,330,2012-10-27 06:38:00
2:53 AM,71.1,62.1,73,29.56,10.0,NW,18.4,27.6,N/A,,Overcast,320,2012-10-27 06:53:00
3:22 AM,71.6,62.6,73,29.55,10.0,NNW,19.6,25.3,N/A,,Mostly Cloudy,330,2012-10-27 07:22:00
3:42 AM,71.6,62.6,73,29.54,10.0,NNW,18.4,27.6,N/A,,Overcast,330,2012-10-27 07:42:00
3:53 AM,71.1,62.1,73,29.53,10.0,NW,17.3,26.5,N/A,,Overcast,310,2012-10-27 07:53:00
4:08 AM,71.6,62.6,73,29.53,10.0,NW,17.3,26.5,N/A,,Overcast,320,2012-10-27 08:08:00
4:30 AM,69.8,60.8,73,29.52,10.0,NW,18.4,28.8,N/A,,Overcast,320,2012-10-27 08:30:00
4:53 AM,70.0,61.0,73,29.53,10.0,NW,17.3,26.5,N/A,,Overcast,320,2012-10-27 08:53:00
5:14 AM,69.8,60.8,73,29.53,10.0,NW,18.4,26.5,N/A,,Mostly Cloudy,310,2012-10-27 09:14:00
5:49 AM,69.8,60.8,73,29.53,10.0,NW,19.6,28.8,N/A,,Mostly Cloudy,320,2012-10-27 09:49:00
5:53 AM,69.1,61.0,75,29.53,10.0,NNW,19.6,28.8,N/A,,Mostly Cloudy,330,2012-10-27 09:53:00
6:53 AM,69.1,60.1,73,29.54,10.0,NW,17.3,27.6,N/A,,Mostly Cloudy,320,2012-10-27 10:53:00
7:20 AM,68.0,60.8,78,29.54,10.0,NW,20.7,28.8,N/A,,Scattered Clouds,310,2012-10-27 11:20:00
7:45 AM,68.0,60.8,78,29.56,10.0,NW,16.1,24.2,N/A,,Mostly Cloudy,310,2012-10-27 11:45:00
7:53 AM,66.9,60.1,79,29.56,10.0,NW,18.4,26.5,N/A,,Mostly Cloudy,310,2012-10-27 11:53:00
8:53 AM,68.0,60.1,76,29.59,10.0,NW,19.6,29.9,N/A,,Overcast,320,2012-10-27 12:53:00
9:53 AM,69.1,60.1,73,29.59,10.0,NW,17.3,29.9,N/A,,Partly Cloudy,320,2012-10-27 13:53:00
10:53 AM,70.0,61.0,73,29.61,10.0,NW,20.7,27.6,N/A,,Scattered Clouds,320,2012-10-27 14:53:00
11:07 AM,69.8,60.8,73,29.62,10.0,NW,20.7,28.8,N/A,,Mostly Cloudy,320,2012-10-27 15:07:00
11:53 AM,70.0,61.0,73,29.62,10.0,NW,17.3,28.8,N/A,,Mostly Cloudy,320,2012-10-27 15:53:00
12:53 PM,70.0,60.1,71,29.62,10.0,NW,19.6,29.9,N/A,,Overcast,320,2012-10-27 16:53:00
1:35 PM,69.8,60.8,73,29.61,10.0,NW,19.6,27.6,N/A,,Overcast,320,2012-10-27 17:35:00
1:53 PM,70.0,60.1,71,29.60,10.0,NW,17.3,25.3,N/A,,Overcast,320,2012-10-27 17:53:00
2:12 PM,71.6,60.8,69,29.60,10.0,NW,15.0,28.8,N/A,,Overcast,320,2012-10-27 18:12:00
2:53 PM,72.0,60.1,66,29.59,10.0,NW,16.1,26.5,N/A,,Scattered Clouds,320,2012-10-27 18:53:00
3:53 PM,72.0,60.1,66,29.57,10.0,WNW,16.1,23.0,N/A,,Partly Cloudy,300,2012-10-27 19:53:00
4:53 PM,71.1,59.0,66,29.57,10.0,NW,13.8,24.2,N/A,,Partly Cloudy,310,2012-10-27 20:53:00
5:53 PM,71.1,59.0,66,29.60,10.0,NW,18.4,23.0,N/A,,Mostly Cloudy,310,2012-10-27 21:53:00
6:53 PM,69.1,60.1,73,29.61,10.0,NW,10.4,-,N/A,,Clear,310,2012-10-27 22:53:00
7:53 PM,69.1,60.1,73,29.63,10.0,NW,10.4,-,N/A,,Clear,310,2012-10-27 23:53:00
8:53 PM,69.1,59.0,70,29.64,10.0,WNW,11.5,-,N/A,,Clear,300,2012-10-28 00:53:00
9:53 PM,69.1,59.0,70,29.65,10.0,WNW,10.4,-,N/A,,Clear,290,2012-10-28 01:53:00
10:53 PM,69.1,59.0,70,29.67,10.0,WNW,12.7,-,N/A,,Clear,300,2012-10-28 02:53:00